TimeEST,TemperatureF,Dew PointF,Humidity,Sea Level PressureIn,VisibilityMPH,Wind Direction,Wind SpeedMPH,Gust SpeedMPH,PrecipitationIn,Events,Conditions,WindDirDegrees,DateUTC
12:56 AM,3.9,-0.0,84,29.99,10.0,Calm,Calm,-,N/A,,Overcast,0,2013-02-05 05:56:00
1:56 AM,5.0,-0.0,80,29.99,10.0,Calm,Calm,-,N/A,,Overcast,0,2013-02-05 06:56:00
2:56 AM,1.9,-2.9,80,30.00,10.0,ENE,4.6,-,N/A,,Mostly Cloudy,70,2013-02-05 07:56:00
3:56 AM,-0.0,-5.1,79,30.00,10.0,ENE,6.9,-,N/A,,Partly Cloudy,60,2013-02-05 08:56:00
4:56 AM,-2.0,-9.0,72,30.01,10.0,ENE,3.5,-,N/A,,Clear,70,2013-02-05 09:56:00
5:56 AM,-2.9,-9.0,75,30.01,10.0,Calm,Calm,-,N/A,,Mostly Cloudy,0,2013-02-05 10:56:00
6:56 AM,-6.0,-11.0,79,30.03,10.0,ENE,3.5,-,N/A,,Clear,70,2013-02-05 11:56:00
7:56 AM,-6.0,-11.0,79,29.99,10.0,East,3.5,-,N/A,,Overcast,90,2013-02-05 12:56:00
8:56 AM,3.0,-4.0,73,30.04,10.0,Calm,Calm,-,N/A,,Overcast,0,2013-02-05 13:56:00
9:56 AM,10.0,-0.9,61,30.05,10.0,Calm,Calm,-,N/A,,Overcast,0,2013-02-05 14:56:00
10:56 AM,17.1,-2.0,43,30.03,10.0,Calm,Calm,-,N/A,,Scattered Clouds,0,2013-02-05 15:56:00
11:56 AM,19.9,-2.9,37,30.00,10.0,Calm,Calm,-,N/A,,Clear,0,2013-02-05 16:56:00
12:56 PM,23.0,-2.0,34,29.97,10.0,NE,3.5,-,N/A,,Clear,40,2013-02-05 17:56:00
1:56 PM,24.1,1.0,37,29.94,10.0,Calm,Calm,-,N/A,,Clear,0,2013-02-05 18:56:00
2:56 PM,24.1,1.9,38,29.93,10.0,Calm,Calm,-,N/A,,Partly Cloudy,0,2013-02-05 19:56:00
3:56 PM,23.0,3.0,42,29.92,10.0,NNE,3.5,-,N/A,,Mostly Cloudy,30,2013-02-05 20:56:00
4:56 PM,21.9,6.1,51,29.91,10.0,NE,5.8,-,N/A,,Overcast,50,2013-02-05 21:56:00
5:56 PM,19.0,5.0,54,29.90,10.0,Calm,Calm,-,N/A,,Overcast,0,2013-02-05 22:56:00
6:56 PM,19.0,8.1,62,29.91,10.0,Calm,Calm,-,N/A,,Overcast,0,2013-02-05 23:56:00
8:56 PM,18.0,7.0,62,29.90,10.0,ENE,3.5,-,N/A,,Overcast,70,2013-02-06 01:56:00
9:56 PM,18.0,9.0,68,29.90,10.0,Calm,Calm,-,N/A,,Overcast,0,2013-02-06 02:56:00
10:56 PM,19.0,10.0,68,29.87,10.0,NE,3.5,-,N/A,,Overcast,50,2013-02-06 03:56:00
11:56 PM,21.0,12.0,68,29.87,10.0,WSW,4.6,-,N/A,,Overcast,250,2013-02-06 04:56:00